EHI
3 1 0 0 0 0 0 0 0 0 0 0 0 0 0 0 0 0 0 0 0 0 0 0 0 0 0 0 0 0 0 0 0 0 0 0 0 1 1 0 0 0 0 0 1 1 1 0 0
1 0 0 0 0 0 0 0 0 0 0 0 0 0 0 0 0 0 0 0 0 0 0 0 0 0 0 0 0 0 0 0 0 0 0 0 0 1 1 0 0 0 0 0 0 0 0 0 0
0 0 0 0 0 0 0 0 0 0 0 0 0 0 0 0 0 0 0 0 0 0 0 0 0 0 0 0 0 0 0 0 0 0 0 0 0 1 1 0 0 0 0 0 0 0 0 0 0
0 0 0 0 0 0 0 0 0 0 0 0 0 0 0 0 1 1 0 0 0 0 0 0 0 0 0 0 0 0 0 0 0 0 0 0 0 0 0 0 0 0 0 0 0 0 0 0 0
0 0 0 0 0 0 0 0 0 0 0 0 0 0 0 1 2 2 1 0 0 0 0 0 0 0 0 0 0 0 0 0 0 0 0 0 0 0 0 0 0 0 0 0 0 0 0 0 0
0 0 0 0 0 0 0 0 0 1 0 0 0 0 0 1 2 2 1 0 0 0 0 0 0 0 0 0 0 0 0 0 0 0 0 0 0 0 0 0 0 0 0 0 0 0 0 0 0
0 0 0 0 0 0 0 0 0 0 0 0 0 0 0 0 1 1 1 0 0 0 0 0 0 0 0 0 0 0 0 0 0 0 0 0 0 0 0 0 0 0 0 0 0 0 0 0 0
0 0 0 0 0 0 0 0 0 0 0 0 0 0 0 0 1 1 0 0 0 0 0 0 0 0 0 0 0 0 0 0 0 0 0 0 0 0 0 0 0 0 0 0 0 0 0 0 0
0 0 0 0 0 0 0 0 0 0 0 0 0 0 0 1 1 1 0 0 0 0 0 0 0 0 0 0 0 0 0 0 0 0 0 0 0 0 0 0 0 0 0 0 0 0 0 0 0
0 0 0 0 0 0 0 0 0 0 0 0 0 0 0 1 2 2 1 0 0 0 0 0 0 0 0 0 0 0 0 0 0 0 0 0 0 0 0 0 0 0 0 0 0 0 0 0 0
0 0 0 0 0 0 0 0 0 0 0 0 0 0 0 0 1 2 1 0 0 0 0 0 0 0 0 0 0 0 0 0 0 0 0 0 0 0 0 0 0 0 0 0 0 0 0 0 0
0 0 0 0 1 0 0 0 0 0 0 0 0 0 0 0 1 1 1 0 0 0 0 0 0 0 0 0 0 0 0 0 0 0 0 0 0 0 0 0 0 0 0 0 0 0 0 0 0
0 0 0 0 0 0 0 0 0 0 0 0 0 0 0 0 0 0 0 0 0 0 0 0 0 0 0 0 0 0 0 0 0 0 0 0 0 0 0 0 0 0 0 0 0 0 0 0 0
0 0 0 0 0 0 0 0 0 0 0 0 0 0 1 1 1 0 0 0 0 0 0 0 0 0 0 0 0 0 0 0 0 0 0 0 0 0 0 0 0 0 0 0 0 0 0 0 0
0 0 0 0 0 0 0 0 0 0 0 0 0 0 1 2 1 0 1 0 0 0 0 0 0 0 0 0 0 0 0 0 0 0 0 0 0 0 0 0 0 0 0 0 0 0 0 0 0
0 0 0 0 0 0 0 0 0 0 0 0 0 0 1 2 1 0 0 0 0 0 0 0 0 0 0 0 0 0 0 0 0 0 0 0 0 0 0 0 0 0 0 0 0 0 0 0 0
0 0 0 0 0 0 0 0 0 0 0 0 0 0 1 1 1 0 0 0 0 0 0 0 0 0 0 0 0 0 0 0 0 0 0 0 0 0 0 0 0 0 0 0 0 0 0 0 0
0 0 0 0 0 0 0 0 0 0 0 0 0 1 2 1 0 0 0 0 0 0 0 0 0 0 0 0 0 0 0 0 0 0 0 0 0 0 0 0 0 0 0 0 0 0 0 0 0
0 0 0 0 0 0 0 0 0 0 0 0 0 1 2 2 0 0 0 0 0 0 0 0 0 0 0 0 0 0 0 0 0 0 0 0 0 0 0 0 0 0 0 0 0 0 0 0 0
0 0 0 0 0 0 0 0 0 0 0 0 0 1 2 1 0 0 0 0 0 0 0 0 0 0 0 0 0 0 0 0 0 0 0 0 0 0 0 0 0 0 0 0 0 0 0 0 0
0 0 0 0 0 0 0 0 0 0 0 0 0 1 1 0 0 0 0 0 0 0 0 0 0 0 0 0 0 0 0 0 0 0 0 0 0 0 0 0 0 0 0 0 0 0 0 0 0
0 0 0 0 0 0 0 0 0 0 0 0 0 0 0 0 0 0 0 0 0 0 0 0 0 0 0 0 0 0 0 0 0 0 0 0 0 0 0 0 0 0 0 0 0 0 0 0 0
0 0 0 0 0 0 0 0 0 0 0 0 0 0 0 0 0 0 0 0 0 0 0 0 0 0 0 0 0 0 0 0 0 0 0 0 0 0 0 0 0 0 0 0 0 0 0 0 0
0 0 0 0 0 0 0 0 0 0 0 0 0 0 0 0 0 0 0 0 0 0 0 0 0 0 0 0 0 0 0 0 0 0 0 0 0 0 0 0 0 0 0 0 0 0 0 0 0
0 0 0 0 0 0 0 0 0 0 0 0 0 0 0 0 0 0 0 0 0 0 0 0 0 0 0 0 0 0 0 0 0 0 0 0 0 0 0 0 0 0 0 0 0 0 0 0 0
0 0 0 0 0 0 0 0 0 0 0 0 0 0 0 0 0 0 0 0 0 0 0 0 0 0 0 0 0 0 0 0 0 0 0 0 0 0 0 0 0 0 0 0 0 0 0 0 0
0 0 0 0 0 0 0 0 0 0 0 0 0 0 0 0 0 0 0 0 0 0 0 0 0 0 0 0 0 0 0 0 0 0 0 0 0 0 0 0 0 0 0 0 0 0 0 0 0
0 0 0 0 0 0 0 0 0 0 0 0 0 0 0 0 0 0 0 0 0 0 0 0 0 0 0 0 0 0 0 0 0 0 0 0 0 0 0 0 0 0 0 0 0 0 0 0 0
0 0 0 0 0 0 0 0 0 0 0 0 0 0 0 0 0 0 0 0 0 0 0 0 0 0 0 0 0 0 0 0 0 0 0 0 0 0 0 0 0 0 0 0 0 0 0 0 0
0 0 0 0 0 0 0 0 0 0 0 0 0 0 0 0 0 0 0 0 0 0 0 0 0 0 0 0 0 0 0 0 0 0 0 0 0 0 0 0 0 0 0 0 0 0 0 0 0
Wind_Speed
4 2 1 2 4 4 2 2 1 0 1 2 5 9 8 6 5 6 3 9 10 8 7 8 11 11 11 11 11 10 10 10 10 10 9 9 9 9 8 8 8 7 7 7 7 6 6 5 5
1 1 2 3 4 2 1 2 2 1 5 6 7 8 8 7 7 8 6 9 10 9 6 8 11 11 11 11 10 10 10 10 9 9 9 9 8 8 7 7 7 7 7 6 6 6 5 5 5
1 0 2 3 2 2 3 3 3 1 4 4 5 6 6 5 6 5 8 11 10 8 6 8 12 11 11 10 10 10 9 9 9 8 8 8 7 7 6 6 6 6 6 6 5 5 5 4 4
2 3 3 3 1 2 3 3 2 3 4 5 5 6 4 3 5 9 12 12 11 8 6 8 12 12 11 10 10 9 8 8 7 7 7 6 6 5 6 5 5 5 5 5 5 5 4 4 4
3 3 3 1 1 1 1 2 1 4 3 5 7 7 4 3 11 14 13 12 11 8 6 8 12 12 11 10 9 8 7 7 6 5 5 5 5 4 4 4 4 4 3 4 4 4 4 4 4
3 3 3 0 0 1 1 0 4 5 6 6 8 6 3 5 10 12 12 10 10 9 7 7 12 12 11 10 9 8 6 5 4 4 3 3 2 2 2 2 2 2 2 3 3 4 4 4 4
3 3 2 1 1 1 0 0 3 5 5 4 6 6 4 4 8 11 11 10 9 9 7 5 5 7 10 9 8 7 6 4 3 1 0 1 1 2 2 2 2 2 3 3 4 5 5 5 5
3 3 1 0 2 1 1 1 2 5 4 5 6 8 6 7 8 10 10 9 8 7 6 6 5 4 4 4 7 7 6 4 2 2 2 2 3 3 3 3 4 4 4 4 5 6 6 7 7
3 4 1 2 2 1 1 3 2 3 5 3 3 5 9 11 10 9 7 5 6 7 5 5 5 4 4 4 5 5 5 3 3 3 4 4 2 2 3 4 5 5 4 5 6 7 7 7 7
3 3 4 2 3 2 1 4 2 3 6 5 6 7 10 10 9 9 8 7 6 7 6 5 6 5 4 4 2 2 2 1 2 2 2 1 1 1 1 3 3 4 5 6 7 8 7 5 3
3 5 3 2 3 2 1 3 2 6 4 7 11 12 10 9 8 8 8 7 7 7 7 7 6 5 5 2 2 1 1 0 1 1 0 0 1 2 2 2 3 4 4 3 5 5 3 3 2
2 3 3 2 2 2 2 2 2 4 7 9 11 12 10 10 9 8 8 6 6 7 7 7 7 5 4 3 2 2 1 1 0 0 2 2 2 2 2 2 2 2 2 2 2 2 3 3 3
2 2 3 3 2 3 3 3 3 3 5 8 9 9 9 9 7 6 7 7 6 6 6 6 6 5 4 3 2 3 2 2 1 2 2 3 2 2 2 2 2 2 2 2 3 3 3 3 3
4 4 3 3 2 3 5 2 3 4 6 9 10 8 8 9 8 6 6 7 7 7 6 5 6 6 5 4 3 2 2 2 2 2 3 4 3 2 2 2 3 3 2 2 2 3 3 2 2
3 2 2 2 3 2 5 1 3 6 8 8 8 8 7 7 7 8 9 8 8 7 6 6 6 6 6 5 4 3 2 3 3 2 3 4 3 3 2 2 3 3 3 3 3 3 3 3 3
2 2 2 3 3 3 5 2 4 5 8 7 6 7 7 7 7 8 8 7 7 7 6 6 7 7 6 5 4 3 3 3 3 2 3 3 4 3 3 3 2 3 3 3 2 2 3 3 3
1 2 3 3 3 3 4 4 4 3 7 7 6 6 6 4 5 6 7 8 8 8 7 6 7 7 6 5 4 4 3 3 2 2 2 3 3 3 3 2 2 3 3 3 3 2 2 2 3
3 3 3 4 3 5 4 3 2 3 6 7 6 5 5 5 6 6 7 7 8 7 7 7 6 6 6 4 4 3 3 2 2 2 2 3 3 3 3 2 3 3 3 3 3 3 2 2 2
3 3 3 3 4 5 5 3 2 3 3 4 4 5 5 5 4 5 6 7 7 6 7 7 6 5 5 3 3 2 1 1 1 0 1 2 2 2 3 2 3 3 2 3 3 2 3 3 2
3 2 3 1 4 5 4 1 0 2 4 5 6 6 5 4 3 4 5 6 7 6 6 6 6 6 5 3 3 2 2 1 1 0 1 1 1 1 2 2 2 2 2 3 4 3 2 2 3
4 4 4 3 3 5 6 4 2 2 1 2 3 4 4 6 6 5 5 5 6 6 6 6 6 6 5 4 3 3 3 2 2 1 1 1 0 0 1 2 2 2 2 2 2 2 2 2 3
4 4 4 4 5 2 3 2 2 1 2 2 2 3 3 4 5 4 4 4 5 5 5 5 6 5 5 5 5 4 3 1 2 2 1 1 1 1 0 1 1 1 1 2 2 2 1 2 2
4 2 2 4 5 3 2 4 4 1 3 3 3 3 3 4 6 5 4 4 4 4 5 5 6 5 4 5 5 4 2 1 1 0 0 1 1 2 1 0 1 1 1 1 2 2 2 1 1
3 5 6 5 4 2 2 4 4 5 7 6 3 4 4 4 5 4 3 4 4 4 5 5 6 4 4 4 4 4 3 2 1 0 0 1 1 2 2 1 0 0 1 1 1 1 2 1 1
4 5 4 3 2 3 2 2 6 7 8 9 9 6 5 5 5 5 4 4 4 5 5 5 6 4 3 4 3 3 3 2 2 1 1 1 1 1 2 1 1 1 1 1 1 1 1 1 1
4 6 6 5 4 2 1 2 5 3 6 7 8 7 6 5 4 5 4 4 4 5 5 5 5 4 3 3 2 2 2 1 1 2 2 2 2 2 2 2 2 1 1 0 0 1 1 1 1
6 4 5 6 3 2 2 1 3 4 6 6 7 7 6 5 5 4 4 4 4 5 5 5 5 4 3 3 2 1 1 1 1 1 1 1 1 1 2 2 2 1 1 1 0 1 1 1 1
6 7 5 5 5 3 2 3 6 8 9 8 8 8 6 5 5 4 4 4 4 4 4 4 5 4 3 2 2 2 1 1 1 1 1 1 1 1 1 1 1 1 1 1 1 1 2 1 2
5 4 5 4 4 6 4 7 8 14 14 12 10 9 8 7 6 5 4 3 4 4 4 4 3 3 2 2 2 2 1 1 1 1 1 1 1 1 1 2 2 2 2 2 1 1 2 2 2
6 7 7 6 4 4 4 7 4 13 11 12 10 8 7 7 6 5 4 4 4 4 3 3 3 3 2 2 2 2 2 2 2 2 2 2 2 2 2 1 1 2 2 2 2 3 2 2 2
Wind_Direction
278 299 82 56 51 53 32 324 253 268 70 66 78 84 79 60 85 117 141 132 128 124 117 113 110 106 102 97 93 90 88 86 84 82 80 78 75 72 70 69 66 65 66 68 65 62 61 57 49
290 329 63 61 76 79 285 245 208 179 149 134 96 86 80 74 85 107 125 134 128 123 118 115 113 108 104 100 96 92 90 87 85 81 78 76 73 70 67 64 61 59 56 56 56 52 49 45 41
301 310 79 71 95 170 193 225 204 133 132 107 81 62 74 102 108 120 142 137 124 118 116 122 117 114 109 105 100 97 92 88 85 81 77 74 71 67 64 60 57 53 50 48 44 37 32 27 26
49 37 54 71 148 225 192 208 175 106 72 62 91 67 60 100 120 130 139 132 124 122 123 128 124 121 117 113 108 103 98 93 88 84 79 73 69 65 60 54 50 47 43 40 33 20 14 6 359
66 71 57 33 265 265 210 207 156 98 81 71 88 85 59 59 115 131 137 133 131 134 135 137 133 131 128 124 118 112 106 100 92 85 80 73 66 61 56 49 41 35 29 26 19 4 358 348 337
59 70 84 143 286 15 331 141 106 93 107 102 97 102 96 116 125 137 139 138 142 145 146 145 144 141 138 134 130 126 121 112 101 92 77 65 59 43 28 21 7 360 358 360 352 343 337 332 325
110 103 144 198 144 55 189 313 115 127 125 129 122 103 123 142 142 143 143 144 148 149 148 151 152 150 149 148 147 146 142 141 139 128 64 347 323 308 299 291 294 308 324 329 329 324 321 318 311
127 101 88 216 140 177 266 38 107 109 107 127 125 130 157 170 147 139 141 146 151 152 156 163 165 164 162 166 167 166 167 176 198 237 272 304 313 308 285 268 273 285 308 318 320 317 315 311 306
95 82 161 207 172 208 206 97 42 65 95 87 105 138 155 152 139 131 131 138 153 162 171 173 176 181 186 194 195 190 193 208 236 284 306 326 335 321 290 265 262 272 296 309 312 313 313 311 307
100 141 210 215 178 191 170 114 114 89 82 80 89 107 133 143 142 143 150 160 168 173 182 183 185 190 194 204 185 214 237 258 281 297 316 336 350 335 2 312 304 306 314 317 315 316 318 320 311
157 185 205 208 190 172 88 82 94 124 128 157 148 150 153 150 153 157 163 165 172 172 174 179 183 186 186 199 177 196 241 272 289 281 210 46 27 18 24 7 352 346 347 341 332 332 330 320 305
177 231 198 193 201 123 102 96 108 156 175 173 160 158 158 159 167 169 170 170 163 155 164 169 170 166 169 162 157 151 143 152 165 56 65 64 36 29 25 21 0 358 343 337 337 333 328 327 322
210 242 232 213 190 153 138 149 134 161 163 157 155 154 160 170 175 178 172 168 156 150 157 156 156 152 144 125 115 112 122 130 109 52 51 65 58 41 36 29 15 0 353 353 350 347 343 343 341
209 219 232 214 203 164 141 150 123 173 160 157 160 167 172 177 176 171 166 164 161 156 157 147 143 141 126 115 112 115 119 111 81 60 64 71 73 66 53 31 17 5 355 357 1 353 348 337 340
190 200 266 235 201 162 121 86 178 175 163 166 173 174 177 183 178 180 177 171 164 161 153 143 140 130 121 117 116 111 109 100 86 74 65 69 70 70 66 39 19 354 355 9 10 1 359 359 1
145 149 203 256 181 169 122 190 240 174 160 173 180 178 183 191 188 184 176 166 162 158 152 150 139 130 126 120 111 105 102 102 95 84 67 58 59 66 61 44 10 348 5 9 5 4 356 354 352
68 163 200 252 200 149 132 194 240 179 160 172 182 186 185 187 191 185 173 166 165 160 152 147 140 136 131 118 107 101 99 98 104 91 73 57 53 55 63 45 2 2 15 6 356 11 358 346 341
194 190 202 208 201 140 142 200 204 165 164 171 177 180 177 179 191 178 170 164 163 158 150 143 141 137 125 106 91 74 68 73 79 82 78 69 56 59 63 43 13 16 20 6 360 355 355 342 336
189 189 224 224 184 141 153 179 190 189 152 158 182 184 179 191 191 168 162 155 150 151 146 148 145 145 128 113 112 107 104 104 64 49 91 84 76 67 64 40 17 19 22 4 360 1 0 354 360
230 234 245 266 171 139 137 139 154 166 171 170 174 173 175 164 153 148 148 151 154 158 154 154 153 149 144 139 142 144 145 157 156 348 38 90 97 61 60 54 32 21 20 15 15 22 11 355 16
237 215 203 170 99 81 95 27 16 353 74 118 129 138 147 158 161 156 153 154 151 158 163 163 161 154 148 133 110 85 63 44 32 7 311 286 234 86 59 58 53 35 41 13 3 21 38 6 352
231 229 190 152 117 131 118 119 294 198 89 108 126 125 138 155 149 151 156 155 156 165 152 146 150 148 141 132 125 128 131 160 221 224 244 279 272 251 294 47 51 46 36 6 350 29 33 51 2
212 208 135 124 112 83 74 121 267 180 147 184 168 148 147 153 146 145 152 151 142 137 134 133 132 133 136 134 134 128 132 184 229 267 266 301 303 285 279 14 45 40 13 354 4 17 24 50 51
148 77 64 58 75 99 216 142 219 213 187 179 170 146 142 134 133 131 118 107 102 104 116 124 123 122 129 127 130 134 144 160 145 352 296 298 300 299 287 269 259 287 343 340 350 11 22 21 36
98 97 78 47 36 248 234 152 227 218 187 169 163 156 147 137 128 119 110 105 110 113 117 125 125 124 129 127 136 149 158 164 185 215 218 231 264 269 269 258 239 247 273 313 5 28 11 12 25
152 136 145 157 184 267 335 217 257 209 159 145 144 146 140 132 124 123 129 124 118 120 119 121 122 124 128 132 148 156 154 153 190 210 204 212 225 239 246 243 240 248 263 308 24 12 332 5 11
137 148 154 127 133 115 258 284 352 83 119 132 138 138 144 142 132 127 123 121 119 119 123 128 124 116 121 126 120 104 131 147 187 218 201 222 238 245 235 236 241 254 260 261 223 322 309 344 350
152 146 122 130 146 161 212 216 200 179 169 158 154 153 152 142 130 124 119 119 119 124 119 117 120 126 123 113 112 103 99 116 113 72 24 314 297 290 265 269 256 250 254 249 239 278 290 324 321
150 145 135 134 153 148 180 245 211 184 175 168 167 162 155 148 144 137 130 122 114 109 111 113 115 109 106 109 99 88 76 66 71 52 2 346 346 326 292 274 250 236 242 244 247 282 290 301 309
163 166 151 150 190 169 168 254 225 174 170 162 161 160 155 148 145 138 127 115 106 104 104 110 115 114 120 121 104 90 67 53 43 9 335 338 355 358 335 317 300 274 256 244 235 261 269 273 283